| time (UTC) | temp C | wind direction | speed KPH | gust KPH | rain 1hr cm | rain 24hr cm | rain mn cm | humidity % | barometer mb |
| 20260506193015 | 9 | 70 | 1.6 | 1.6 | 0.30 | 2.29 | 2.29 | 99 | 1005.3 |
| 20260506192511 | 9 | 352 | 0.0 | 0.0 | 0.00 | 2.24 | 2.24 | 99 | 1005.7 |
| 20260506192007 | 9 | 98 | 1.6 | 1.6 | 0.00 | 2.24 | 2.24 | 99 | 1005.4 |
| 20260506191504 | 9 | 110 | 1.6 | 1.6 | 0.00 | 2.24 | 2.24 | 99 | 1005.4 |
| 20260506191000 | 9 | 17 | 0.0 | 1.6 | 0.00 | 2.24 | 2.24 | 99 | 1005.3 |
| 20260506190457 | 10 | 334 | 0.0 | 1.6 | 0.00 | 2.24 | 2.24 | 99 | 1005.1 |
| 20260506185954 | 10 | 22 | 0.0 | 1.6 | 0.13 | 2.24 | 2.24 | 99 | 1005.2 |
| 20260506185451 | 10 | 23 | 1.6 | 3.2 | 0.13 | 2.24 | 2.24 | 99 | 1005.1 |
| 20260506184948 | 10 | 30 | 0.0 | 0.0 | 0.00 | 2.21 | 2.21 | 99 | 1005.2 |
| 20260506184445 | 10 | 92 | 0.0 | 1.6 | 0.18 | 2.21 | 2.21 | 99 | 1005.2 |
| 20260506183942 | 10 | 15 | 0.0 | 0.0 | 0.30 | 2.21 | 2.21 | 99 | 1005.1 |
| 20260506183438 | 11 | 6 | 0.0 | 0.0 | 0.30 | 2.18 | 2.18 | 99 | 1005.2 |
| 20260506182935 | 11 | 88 | 1.6 | 1.6 | 0.43 | 2.18 | 2.18 | 99 | 1005.3 |
| 20260506182432 | 11 | 10 | 0.0 | 0.0 | 0.61 | 2.13 | 2.13 | 99 | 1005.5 |
| 20260506181929 | 11 | 44 | 0.0 | 1.6 | 0.66 | 2.11 | 2.11 | 99 | 1005.2 |
| 20260506181427 | 11 | 349 | 0.0 | 0.0 | 0.48 | 2.03 | 2.03 | 99 | 1005.4 |
| 20260506180924 | 11 | 359 | 0.0 | 0.0 | 0.61 | 2.01 | 2.01 | 99 | 1005.4 |
| 20260506180420 | 11 | 352 | 0.0 | 0.0 | 0.43 | 1.96 | 1.96 | 99 | 1005.1 |
| 20260506175917 | 10 | 332 | 0.0 | 0.0 | 0.30 | 1.91 | 1.91 | 99 | 1005.3 |
| 20260506175414 | 10 | 21 | 1.6 | 1.6 | 0.18 | 1.88 | 1.88 | 99 | 1005.6 |
| 20260506174911 | 11 | 29 | 0.0 | 1.6 | 0.30 | 1.85 | 1.85 | 99 | 1005.2 |
| 20260506174408 | 11 | 12 | 0.0 | 0.0 | 0.30 | 1.85 | 1.85 | 99 | 1005.4 |
| 20260506173900 | 11 | 12 | 1.6 | 1.6 | 0.13 | 1.80 | 1.80 | 99 | 1005.4 |
| 20260506173356 | 11 | 46 | 0.0 | 0.0 | 0.18 | 1.78 | 1.78 | 99 | 1005.5 |
| 20260506172854 | 11 | 320 | 0.0 | 0.0 | 0.30 | 1.78 | 1.78 | 99 | 1005.6 |
| 20260506172350 | 11 | 1 | 0.0 | 0.0 | 0.30 | 1.75 | 1.75 | 99 | 1005.4 |
| 20260506171848 | 11 | 36 | 0.0 | 0.0 | 0.48 | 1.73 | 1.73 | 99 | 1005.5 |
| 20260506171344 | 11 | 90 | 0.0 | 1.6 | 0.30 | 1.70 | 1.70 | 99 | 1005.6 |
| 20260506170842 | 11 | 104 | 1.6 | 1.6 | 0.18 | 1.65 | 1.65 | 99 | 1005.4 |
| 20260506170338 | 11 | 354 | 0.0 | 0.0 | 0.30 | 1.65 | 1.65 | 99 | 1006.0 |
| 20260506165837 | 11 | 357 | 1.6 | 1.6 | 0.43 | 1.63 | 1.63 | 99 | 1005.3 |
| 20260506165335 | 11 | 14 | 0.0 | 0.0 | 0.61 | 1.60 | 1.60 | 99 | 1005.9 |
| 20260506164831 | 11 | 41 | 0.0 | 0.0 | 0.48 | 1.55 | 1.55 | 99 | 1005.8 |
| 20260506164328 | 11 | 0 | 0.0 | 0.0 | 0.48 | 1.50 | 1.50 | 99 | 1006.0 |
| 20260506163825 | 11 | 6 | 0.0 | 0.0 | 0.43 | 1.47 | 1.47 | 99 | 1006.2 |
| 20260506163320 | 11 | 349 | 0.0 | 0.0 | 0.30 | 1.42 | 1.42 | 99 | 1006.0 |
| 20260506162815 | 11 | 359 | 0.0 | 1.6 | 0.36 | 1.40 | 1.40 | 99 | 1006.0 |
| 20260506162314 | 12 | 354 | 0.0 | 0.0 | 0.48 | 1.37 | 1.37 | 99 | 1006.0 |
| 20260506161811 | 12 | 48 | 0.0 | 0.0 | 0.18 | 1.32 | 1.32 | 99 | 1006.3 |
| 20260506161308 | 12 | 67 | 1.6 | 1.6 | 0.13 | 1.30 | 1.30 | 99 | 1006.0 |
| 20260506160806 | 12 | 349 | 0.0 | 0.0 | 0.30 | 1.30 | 1.30 | 99 | 1006.2 |
| 20260506160302 | 12 | 4 | 0.0 | 0.0 | 0.30 | 1.27 | 1.27 | 99 | 1006.2 |
| 20260506155801 | 12 | 8 | 0.0 | 0.0 | 0.30 | 1.24 | 1.24 | 99 | 1006.6 |
| 20260506155257 | 12 | 15 | 1.6 | 1.6 | 0.48 | 1.22 | 1.22 | 99 | 1006.4 |
| 20260506153410 | 12 | 47 | 0.0 | 0.0 | 0.48 | 1.09 | 1.09 | 99 | 1006.8 |
| 20260506152907 | 12 | 351 | 0.0 | 0.0 | 0.48 | 1.07 | 1.07 | 99 | 1006.7 |
| 20260506152404 | 12 | 3 | 0.0 | 0.0 | 0.43 | 1.02 | 1.02 | 99 | 1006.6 |
| 20260506151903 | 12 | 61 | 0.0 | 0.0 | 0.48 | 0.99 | 0.99 | 99 | 1006.9 |
| 20260506151359 | 12 | 353 | 0.0 | 0.0 | 0.43 | 0.97 | 0.97 | 99 | 1006.8 |
| 20260506150857 | 12 | 125 | 1.6 | 1.6 | 0.30 | 0.91 | 0.91 | 99 | 1007.0 |
| 20260506150353 | 12 | 61 | 0.0 | 1.6 | 0.48 | 0.89 | 0.89 | 99 | 1006.9 |
| 20260506145850 | 12 | 0 | 0.0 | 0.0 | 0.43 | 0.86 | 0.86 | 99 | 1007.0 |
| 20260506145346 | 12 | 44 | 0.0 | 0.0 | 0.48 | 0.84 | 0.84 | 99 | 1007.0 |
| 20260506144844 | 12 | 345 | 0.0 | 0.0 | 0.36 | 0.79 | 0.79 | 99 | 1007.2 |
| 20260506144340 | 12 | 349 | 0.0 | 0.0 | 0.30 | 0.76 | 0.76 | 99 | 1007.2 |
| 20260506143838 | 12 | 3 | 0.0 | 0.0 | 0.43 | 0.74 | 0.74 | 99 | 1007.4 |
| 20260506143335 | 12 | 3 | 0.0 | 0.0 | 0.48 | 0.71 | 0.71 | 99 | 1007.4 |
| 20260506142833 | 12 | 352 | 0.0 | 0.0 | 0.30 | 0.66 | 0.66 | 99 | 1007.4 |
| 20260506142331 | 12 | 13 | 0.0 | 0.0 | 0.30 | 0.64 | 0.64 | 99 | 1007.6 |
| 20260506141829 | 12 | 262 | 0.0 | 1.6 | 0.30 | 0.61 | 0.61 | 99 | 1007.6 |
| 20260506141327 | 13 | 50 | 0.0 | 0.0 | 0.30 | 0.58 | 0.58 | 99 | 1007.5 |
| 20260506140825 | 13 | 325 | 0.0 | 0.0 | 0.30 | 0.56 | 0.56 | 99 | 1007.9 |
| 20260506140321 | 13 | 6 | 0.0 | 0.0 | 0.30 | 0.53 | 0.53 | 99 | 1007.6 |
| 20260506135818 | 13 | 13 | 0.0 | 0.0 | 0.30 | 0.51 | 0.51 | 99 | 1007.9 |
| 20260506135314 | 13 | 354 | 0.0 | 0.0 | 0.30 | 0.48 | 0.48 | 99 | 1007.6 |
| 20260506134811 | 13 | 359 | 0.0 | 0.0 | 0.36 | 0.46 | 0.46 | 99 | 1007.2 |
| 20260506134308 | 13 | 0 | 0.0 | 0.0 | 0.18 | 0.43 | 0.43 | 99 | 1007.2 |
| 20260506133805 | 13 | 358 | 0.0 | 0.0 | 0.13 | 0.41 | 0.41 | 99 | 1007.4 |
| 20260506133302 | 13 | 358 | 0.0 | 0.0 | 0.30 | 0.41 | 0.41 | 99 | 1007.3 |
| 20260506132758 | 13 | 359 | 0.0 | 0.0 | 0.30 | 0.38 | 0.38 | 99 | 1007.1 |
| 20260506132255 | 13 | 12 | 0.0 | 0.0 | 0.13 | 0.36 | 0.36 | 99 | 1007.2 |
| 20260506131754 | 13 | 63 | 0.0 | 0.0 | 0.18 | 0.33 | 0.33 | 99 | 1007.3 |
| 20260506131249 | 13 | 338 | 0.0 | 0.0 | 0.18 | 0.33 | 0.33 | 99 | 1007.4 |
| 20260506130746 | 13 | 21 | 0.0 | 0.0 | 0.13 | 0.30 | 0.30 | 99 | 1007.3 |
| 20260506130243 | 13 | 23 | 0.0 | 0.0 | 0.30 | 0.30 | 0.30 | 99 | 1007.4 |
| 20260506125741 | 13 | 15 | 0.0 | 0.0 | 0.30 | 0.28 | 0.28 | 99 | 1007.4 |
| 20260506125239 | 13 | 356 | 0.0 | 0.0 | 0.30 | 0.25 | 0.25 | 99 | 1007.6 |
| 20260506124737 | 13 | 354 | 0.0 | 0.0 | 0.18 | 0.23 | 0.23 | 99 | 1007.6 |
| 20260506124234 | 13 | 1 | 0.0 | 0.0 | 0.13 | 0.20 | 0.20 | 99 | 1007.6 |
| 20260506123732 | 13 | 3 | 0.0 | 0.0 | 0.30 | 0.20 | 0.20 | 99 | 1007.8 |
| 20260506123230 | 13 | 14 | 0.0 | 0.0 | 0.18 | 0.18 | 0.18 | 99 | 1007.7 |
| 20260506122726 | 13 | 9 | 0.0 | 0.0 | 0.30 | 0.15 | 0.15 | 99 | 1007.7 |
| 20260506122224 | 12 | 350 | 0.0 | 0.0 | 0.30 | 0.15 | 0.15 | 99 | 1007.9 |
| 20260506121722 | 13 | 358 | 0.0 | 0.0 | 0.36 | 0.13 | 0.13 | 99 | 1008.1 |
| 20260506121218 | 12 | 3 | 0.0 | 0.0 | 0.18 | 0.10 | 0.10 | 99 | 1008.0 |
| 20260506120716 | 13 | 3 | 0.0 | 0.0 | 0.13 | 0.08 | 0.08 | 99 | 1008.0 |
| 20260506120213 | 13 | 354 | 0.0 | 0.0 | 0.13 | 0.08 | 0.08 | 99 | 1008.2 |
| 20260506115711 | 12 | 351 | 0.0 | 0.0 | 0.00 | 0.05 | 0.05 | 99 | 1008.2 |
| 20260506115209 | 12 | 341 | 0.0 | 0.0 | 0.00 | 0.05 | 0.05 | 99 | 1007.8 |
| 20260506114706 | 12 | 356 | 0.0 | 0.0 | 0.00 | 0.05 | 0.05 | 99 | 1007.4 |
| 20260506114204 | 12 | 328 | 0.0 | 0.0 | 0.00 | 0.05 | 0.05 | 99 | 1007.4 |
| 20260506113703 | 12 | 12 | 0.0 | 0.0 | 0.00 | 0.05 | 0.05 | 99 | 1007.4 |
| 20260506113200 | 12 | 340 | 0.0 | 0.0 | 0.18 | 0.05 | 0.05 | 99 | 1007.2 |
| 20260506112655 | 12 | 356 | 0.0 | 0.0 | 0.18 | 0.05 | 0.05 | 99 | 1007.2 |
| 20260506112154 | 12 | 353 | 0.0 | 0.0 | 0.00 | 0.03 | 0.03 | 99 | 1007.4 |
| 20260506111651 | 12 | 349 | 0.0 | 0.0 | 0.00 | 0.03 | 0.03 | 99 | 1007.5 |
| 20260506111149 | 12 | 358 | 0.0 | 0.0 | 0.00 | 0.03 | 0.03 | 99 | 1007.8 |
| 20260506110646 | 12 | 339 | 0.0 | 0.0 | 0.00 | 0.03 | 0.03 | 99 | 1007.7 |
| 20260506110143 | 12 | 356 | 0.0 | 0.0 | 0.00 | 0.03 | 0.03 | 99 | 1007.5 |
| 20260506105639 | 12 | 352 | 0.0 | 0.0 | 0.00 | 0.03 | 0.03 | 99 | 1007.6 |
| 20260506105137 | 12 | 349 | 0.0 | 0.0 | 0.00 | 0.03 | 0.03 | 99 | 1007.5 |
| 20260506104634 | 12 | 358 | 0.0 | 0.0 | 0.00 | 0.03 | 0.03 | 99 | 1007.3 |
| 20260506104132 | 12 | 352 | 0.0 | 0.0 | 0.00 | 0.03 | 0.03 | 99 | 1007.7 |
| 20260506103629 | 12 | 351 | 0.0 | 0.0 | 0.00 | 0.03 | 0.03 | 99 | 1007.4 |
| 20260506103126 | 12 | 343 | 0.0 | 0.0 | 0.00 | 0.03 | 0.03 | 99 | 1007.1 |
| 20260506102624 | 12 | 349 | 0.0 | 0.0 | 0.00 | 0.03 | 0.03 | 99 | 1007.6 |
| 20260506102121 | 12 | 358 | 0.0 | 0.0 | 0.00 | 0.03 | 0.03 | 99 | 1007.3 |
| 20260506101617 | 12 | 349 | 0.0 | 0.0 | 0.00 | 0.03 | 0.03 | 99 | 1007.2 |
| 20260506101114 | 12 | 349 | 0.0 | 0.0 | 0.00 | 0.03 | 0.03 | 99 | 1007.4 |
| 20260506100613 | 12 | 353 | 0.0 | 0.0 | 0.00 | 0.03 | 0.03 | 99 | 1007.4 |
| 20260506100110 | 12 | 348 | 0.0 | 0.0 | 0.00 | 0.03 | 0.03 | 99 | 1007.4 |
| 20260506095609 | 12 | 352 | 0.0 | 0.0 | 0.00 | 0.03 | 0.03 | 99 | 1006.9 |
| 20260506095105 | 12 | 352 | 0.0 | 0.0 | 0.00 | 0.03 | 0.03 | 99 | 1007.0 |
| 20260506094603 | 12 | 352 | 0.0 | 0.0 | 0.00 | 0.03 | 0.03 | 99 | 1007.2 |
| 20260506094100 | 12 | 352 | 0.0 | 0.0 | 0.00 | 0.03 | 0.03 | 99 | 1007.0 |
| 20260506093559 | 12 | 351 | 0.0 | 0.0 | 0.00 | 0.03 | 0.03 | 99 | 1007.0 |
| 20260506093056 | 12 | 355 | 0.0 | 0.0 | 0.00 | 0.03 | 0.03 | 99 | 1007.2 |
| 20260506092554 | 11 | 358 | 0.0 | 0.0 | 0.00 | 0.03 | 0.03 | 99 | 1007.1 |
| 20260506092050 | 11 | 349 | 0.0 | 0.0 | 0.00 | 0.03 | 0.03 | 99 | 1007.1 |
| 20260506091548 | 11 | 347 | 0.0 | 0.0 | 0.00 | 0.03 | 0.03 | 99 | 1007.0 |
| 20260506091045 | 12 | 348 | 0.0 | 0.0 | 0.00 | 0.03 | 0.03 | 99 | 1007.3 |
| 20260506090543 | 12 | 349 | 0.0 | 0.0 | 0.00 | 0.03 | 0.03 | 99 | 1007.2 |
| 20260506090039 | 12 | 348 | 0.0 | 0.0 | 0.00 | 0.03 | 0.03 | 99 | 1007.4 |
| 20260506085536 | 12 | 350 | 0.0 | 0.0 | 0.00 | 0.03 | 0.03 | 99 | 1007.1 |
| 20260506085032 | 12 | 358 | 0.0 | 0.0 | 0.00 | 0.03 | 0.03 | 99 | 1007.2 |
| 20260506084530 | 12 | 349 | 0.0 | 0.0 | 0.00 | 0.03 | 0.03 | 99 | 1006.9 |
| 20260506084025 | 12 | 347 | 0.0 | 0.0 | 0.00 | 0.03 | 0.03 | 99 | 1007.6 |
| 20260506083523 | 12 | 347 | 0.0 | 0.0 | 0.00 | 0.03 | 0.03 | 99 | 1007.4 |
| 20260506083020 | 12 | 339 | 0.0 | 0.0 | 0.00 | 0.03 | 0.03 | 99 | 1007.3 |
| 20260506082517 | 12 | 338 | 0.0 | 0.0 | 0.00 | 0.03 | 0.03 | 99 | 1007.4 |
| 20260506082013 | 12 | 338 | 0.0 | 0.0 | 0.00 | 0.03 | 0.03 | 98 | 1007.5 |
| 20260506081511 | 12 | 338 | 0.0 | 0.0 | 0.00 | 0.03 | 0.03 | 98 | 1007.6 |
| 20260506081009 | 12 | 338 | 0.0 | 0.0 | 0.00 | 0.03 | 0.03 | 98 | 1007.7 |
| 20260506080506 | 12 | 338 | 0.0 | 0.0 | 0.00 | 0.03 | 0.03 | 98 | 1007.6 |
| 20260506073449 | 12 | 344 | 0.0 | 0.0 | 0.00 | 0.03 | 0.03 | 97 | 1007.9 |
| 20260506072946 | 12 | 344 | 0.0 | 0.0 | 0.00 | 0.03 | 0.03 | 97 | 1008.1 |
| 20260506072443 | 12 | 343 | 0.0 | 0.0 | 0.00 | 0.03 | 0.03 | 97 | 1008.2 |
| 20260506071941 | 12 | 341 | 0.0 | 0.0 | 0.00 | 0.03 | 0.03 | 97 | 1008.1 |
| 20260506071439 | 12 | 339 | 0.0 | 0.0 | 0.00 | 0.03 | 0.03 | 96 | 1007.9 |
| 20260506070936 | 12 | 339 | 0.0 | 0.0 | 0.00 | 0.03 | 0.03 | 96 | 1008.1 |
| 20260506070433 | 12 | 347 | 0.0 | 0.0 | 0.00 | 0.03 | 0.03 | 96 | 1007.9 |
| 20260506062410 | 13 | 1 | 0.0 | 0.0 | 0.00 | 0.03 | 0.03 | 97 | 1008.1 |
| 20260506061906 | 13 | 347 | 0.0 | 1.6 | 0.00 | 0.03 | 0.03 | 98 | 1008.5 |
| 20260506061403 | 13 | 351 | 1.6 | 1.6 | 0.00 | 0.03 | 0.03 | 98 | 1008.3 |
| 20260506060901 | 13 | 356 | 0.0 | 0.0 | 0.00 | 0.03 | 0.03 | 98 | 1008.4 |
| 20260506060358 | 13 | 352 | 0.0 | 0.0 | 0.00 | 0.03 | 0.03 | 98 | 1008.2 |
| 20260506051330 | 15 | 11 | 0.0 | 0.0 | 0.13 | 0.03 | 0.03 | 98 | 1008.4 |
| 20260506050828 | 15 | 0 | 0.0 | 0.0 | 0.00 | 0.00 | 0.00 | 98 | 1008.3 |
| 20260506050325 | 15 | 359 | 0.0 | 0.0 | 0.00 | 0.00 | 0.00 | 97 | 1008.1 |
| 20260506044816 | 15 | 335 | 0.0 | 0.0 | 0.00 | 0.00 | 0.00 | 96 | 1008.3 |
| 20260506044314 | 15 | 356 | 0.0 | 0.0 | 0.00 | 0.00 | 0.00 | 95 | 1008.3 |
| 20260506043810 | 15 | 352 | 0.0 | 0.0 | 0.00 | 0.00 | 0.00 | 94 | 1008.5 |
| 20260506043308 | 15 | 353 | 0.0 | 0.0 | 0.00 | 0.00 | 0.00 | 93 | 1008.3 |
| 20260506042806 | 15 | 11 | 0.0 | 0.0 | 0.00 | 0.00 | 0.00 | 92 | 1008.2 |
| 20260506042305 | 15 | 352 | 0.0 | 0.0 | 0.00 | 0.00 | 0.00 | 92 | 1008.7 |
| 20260506041803 | 15 | 344 | 0.0 | 0.0 | 0.00 | 0.00 | 0.00 | 92 | 1008.6 |
| 20260506041259 | 15 | 306 | 1.6 | 3.2 | 0.00 | 0.00 | 0.00 | 92 | 1008.5 |
| 20260506040757 | 16 | 351 | 0.0 | 0.0 | 0.00 | 0.00 | 0.00 | 92 | 1008.5 |
| 20260506040254 | 16 | 356 | 0.0 | 0.0 | 0.00 | 0.00 | 0.00 | 92 | 1008.3 |
| 20260506035750 | 16 | 345 | 0.0 | 0.0 | 0.00 | 0.30 | 0.30 | 92 | 1008.5 |
| 20260506035247 | 16 | 355 | 0.0 | 0.0 | 0.00 | 0.30 | 0.30 | 92 | 1008.3 |
| 20260506034744 | 16 | 349 | 0.0 | 0.0 | 0.00 | 0.30 | 0.30 | 91 | 1008.1 |
| 20260506034242 | 16 | 342 | 0.0 | 0.0 | 0.00 | 0.30 | 0.30 | 91 | 1008.2 |
| 20260506033739 | 16 | 349 | 0.0 | 1.6 | 0.00 | 0.30 | 0.30 | 91 | 1008.2 |
| 20260506033236 | 16 | 347 | 0.0 | 0.0 | 0.00 | 0.30 | 0.30 | 91 | 1008.2 |
| 20260506032732 | 16 | 351 | 0.0 | 0.0 | 0.00 | 0.30 | 0.30 | 91 | 1008.2 |
| 20260506032229 | 16 | 343 | 0.0 | 0.0 | 0.00 | 0.30 | 0.30 | 91 | 1008.2 |
| 20260506031726 | 16 | 355 | 0.0 | 0.0 | 0.00 | 0.30 | 0.30 | 91 | 1008.3 |
| 20260506031223 | 16 | 346 | 0.0 | 0.0 | 0.00 | 0.30 | 0.30 | 91 | 1008.0 |
| 20260506030722 | 16 | 339 | 0.0 | 0.0 | 0.00 | 0.30 | 0.30 | 92 | 1007.9 |
| 20260506030219 | 16 | 356 | 0.0 | 0.0 | 0.00 | 0.30 | 0.30 | 92 | 1007.9 |
| 20260506025715 | 16 | 347 | 0.0 | 0.0 | 0.00 | 0.30 | 0.30 | 92 | 1008.1 |
| 20260506025212 | 16 | 347 | 0.0 | 1.6 | 0.00 | 0.30 | 0.30 | 92 | 1007.8 |
| 20260506024709 | 16 | 352 | 0.0 | 0.0 | 0.00 | 0.30 | 0.30 | 92 | 1008.0 |
| 20260506024205 | 16 | 357 | 0.0 | 0.0 | 0.00 | 0.30 | 0.30 | 92 | 1007.9 |
| 20260506023702 | 16 | 351 | 0.0 | 0.0 | 0.00 | 0.30 | 0.30 | 92 | 1007.7 |
| 20260506023159 | 16 | 0 | 0.0 | 0.0 | 0.00 | 0.30 | 0.30 | 92 | 1007.8 |
| 20260506022656 | 15 | 355 | 0.0 | 0.0 | 0.00 | 0.30 | 0.30 | 92 | 1007.7 |
| 20260506022153 | 15 | 352 | 0.0 | 0.0 | 0.00 | 0.30 | 0.30 | 92 | 1007.6 |
| 20260506021652 | 16 | 352 | 0.0 | 0.0 | 0.00 | 0.30 | 0.30 | 92 | 1007.7 |
| 20260506021148 | 16 | 346 | 0.0 | 0.0 | 0.00 | 0.30 | 0.30 | 92 | 1008.0 |
| 20260506020645 | 16 | 353 | 0.0 | 0.0 | 0.00 | 0.30 | 0.30 | 92 | 1007.6 |
| 20260506020143 | 16 | 352 | 0.0 | 0.0 | 0.00 | 0.30 | 0.30 | 92 | 1007.6 |
| 20260506015640 | 16 | 356 | 0.0 | 0.0 | 0.00 | 0.30 | 0.30 | 92 | 1007.7 |
| 20260506015137 | 16 | 356 | 0.0 | 0.0 | 0.00 | 0.30 | 0.30 | 92 | 1007.8 |
| 20260506014635 | 16 | 353 | 0.0 | 0.0 | 0.00 | 0.30 | 0.30 | 92 | 1007.5 |
| 20260506014130 | 16 | 347 | 0.0 | 0.0 | 0.00 | 0.30 | 0.30 | 92 | 1007.5 |
| 20260506013629 | 16 | 5 | 0.0 | 0.0 | 0.00 | 0.30 | 0.30 | 92 | 1007.2 |
| 20260506013125 | 16 | 3 | 0.0 | 0.0 | 0.00 | 0.30 | 0.30 | 91 | 1007.2 |
| 20260506012621 | 16 | 353 | 0.0 | 0.0 | 0.00 | 0.30 | 0.30 | 91 | 1006.9 |
| 20260506012118 | 16 | 353 | 0.0 | 0.0 | 0.00 | 0.30 | 0.30 | 91 | 1006.9 |
| 20260506011616 | 16 | 353 | 0.0 | 0.0 | 0.00 | 0.30 | 0.30 | 90 | 1007.2 |
| 20260506011111 | 16 | 3 | 0.0 | 0.0 | 0.00 | 0.30 | 0.30 | 90 | 1006.9 |
| 20260506010606 | 16 | 353 | 0.0 | 0.0 | 0.00 | 0.30 | 0.30 | 90 | 1006.9 |
| 20260506005559 | 16 | 353 | 0.0 | 0.0 | 0.00 | 0.30 | 0.30 | 90 | 1006.8 |
| 20260506005055 | 16 | 356 | 0.0 | 0.0 | 0.00 | 0.30 | 0.30 | 90 | 1007.0 |
| 20260506004552 | 16 | 1 | 0.0 | 0.0 | 0.00 | 0.30 | 0.30 | 89 | 1007.2 |
| 20260506004049 | 16 | 354 | 0.0 | 0.0 | 0.00 | 0.30 | 0.30 | 89 | 1006.9 |
| 20260506003545 | 16 | 357 | 0.0 | 1.6 | 0.00 | 0.30 | 0.30 | 90 | 1006.9 |
| 20260506003042 | 16 | 353 | 0.0 | 0.0 | 0.00 | 0.30 | 0.30 | 90 | 1006.6 |
| 20260506002537 | 16 | 29 | 0.0 | 0.0 | 0.00 | 0.30 | 0.30 | 90 | 1006.2 |
| 20260506002033 | 16 | 27 | 0.0 | 0.0 | 0.00 | 0.30 | 0.30 | 90 | 1005.9 |
| 20260506001530 | 16 | 353 | 0.0 | 0.0 | 0.00 | 0.30 | 0.30 | 89 | 1006.4 |
| 20260506001027 | 16 | 353 | 0.0 | 0.0 | 0.00 | 0.30 | 0.30 | 88 | 1006.0 |
| 20260506000525 | 16 | 349 | 0.0 | 0.0 | 0.00 | 0.30 | 0.30 | 87 | 1006.2 |
| 20260506000022 | 16 | 2 | 0.0 | 0.0 | 0.00 | 0.30 | 0.30 | 86 | 1006.0 |
| 20260505235520 | 17 | 3 | 0.0 | 0.0 | 0.00 | 0.30 | 0.30 | 85 | 1006.2 |
| 20260505235016 | 17 | 356 | 0.0 | 0.0 | 0.00 | 0.30 | 0.30 | 85 | 1005.9 |
| 20260505234514 | 17 | 358 | 0.0 | 0.0 | 0.00 | 0.30 | 0.30 | 84 | 1005.8 |
| 20260505234010 | 17 | 1 | 0.0 | 0.0 | 0.00 | 0.30 | 0.30 | 83 | 1006.0 |
| 20260505233508 | 17 | 7 | 0.0 | 0.0 | 0.00 | 0.30 | 0.30 | 82 | 1006.3 |
| 20260505233005 | 17 | 0 | 0.0 | 0.0 | 0.00 | 0.30 | 0.30 | 81 | 1005.9 |
| 20260505232503 | 17 | 17 | 0.0 | 0.0 | 0.00 | 0.30 | 0.30 | 80 | 1005.9 |
| 20260505232000 | 18 | 349 | 0.0 | 0.0 | 0.00 | 0.30 | 0.30 | 80 | 1005.3 |
| 20260505231457 | 18 | 334 | 0.0 | 0.0 | 0.00 | 0.30 | 0.30 | 79 | 1005.4 |
| 20260505230955 | 17 | 345 | 1.6 | 1.6 | 0.00 | 0.30 | 0.30 | 79 | 1005.3 |
| 20260505230453 | 17 | 299 | 0.0 | 1.6 | 0.00 | 0.30 | 0.30 | 80 | 1005.3 |
| 20260505225949 | 17 | 41 | 0.0 | 0.0 | 0.00 | 0.30 | 0.30 | 80 | 1005.2 |
| 20260505225446 | 17 | 246 | 1.6 | 1.6 | 0.00 | 0.30 | 0.30 | 80 | 1005.3 |
| 20260505224942 | 17 | 359 | 1.6 | 1.6 | 0.00 | 0.30 | 0.30 | 81 | 1005.2 |
| 20260505224439 | 17 | 353 | 0.0 | 1.6 | 0.00 | 0.30 | 0.30 | 81 | 1005.1 |
| 20260505223936 | 17 | 219 | 1.6 | 3.2 | 0.00 | 0.30 | 0.30 | 81 | 1005.2 |
| 20260505223433 | 18 | 280 | 3.2 | 3.2 | 0.00 | 0.30 | 0.30 | 79 | 1005.2 |
| 20260505222930 | 18 | 280 | 6.4 | 11.3 | 0.00 | 0.30 | 0.30 | 78 | 1005.3 |
| 20260505222426 | 18 | 96 | 0.0 | 1.6 | 0.00 | 0.30 | 0.30 | 80 | 1005.4 |
| 20260505221922 | 18 | 15 | 3.2 | 4.8 | 0.00 | 0.30 | 0.30 | 79 | 1005.3 |
| 20260505221419 | 18 | 154 | 3.2 | 3.2 | 0.00 | 0.30 | 0.30 | 78 | 1005.6 |
| 20260505220916 | 18 | 77 | 4.8 | 8.0 | 0.00 | 0.30 | 0.30 | 78 | 1005.5 |
| 20260505220413 | 18 | 200 | 3.2 | 8.0 | 0.00 | 0.30 | 0.30 | 76 | 1005.8 |
| 20260505215911 | 19 | 197 | 4.8 | 8.0 | 0.00 | 0.30 | 0.30 | 73 | 1005.9 |
| 20260505215409 | 19 | 236 | 3.2 | 3.2 | 0.00 | 0.30 | 0.30 | 70 | 1005.6 |
| 20260505214907 | 20 | 79 | 1.6 | 1.6 | 0.00 | 0.30 | 0.30 | 67 | 1005.3 |
| 20260505214404 | 20 | 87 | 1.6 | 3.2 | 0.00 | 0.30 | 0.30 | 67 | 1005.2 |
| 20260505213901 | 19 | 312 | 3.2 | 3.2 | 0.00 | 0.30 | 0.30 | 68 | 1004.9 |
| 20260505213359 | 20 | 286 | 6.4 | 8.0 | 0.00 | 0.30 | 0.30 | 68 | 1004.6 |
| 20260505212855 | 20 | 35 | 1.6 | 4.8 | 0.00 | 0.30 | 0.30 | 68 | 1004.3 |
| 20260505212352 | 20 | 285 | 0.0 | 1.6 | 0.00 | 0.30 | 0.30 | 69 | 1004.5 |
| 20260505211848 | 20 | 291 | 0.0 | 1.6 | 0.00 | 0.30 | 0.30 | 69 | 1004.5 |
| 20260505211346 | 20 | 16 | 1.6 | 1.6 | 0.00 | 0.30 | 0.30 | 68 | 1004.6 |
| 20260505210842 | 20 | 204 | 3.2 | 4.8 | 0.00 | 0.30 | 0.30 | 68 | 1004.9 |
| 20260505210339 | 21 | 359 | 3.2 | 4.8 | 0.00 | 0.30 | 0.30 | 67 | 1004.9 |
| 20260505205836 | 21 | 282 | 1.6 | 1.6 | 0.00 | 0.30 | 0.30 | 68 | 1004.6 |
| 20260505205334 | 21 | 136 | 1.6 | 3.2 | 0.00 | 0.30 | 0.30 | 67 | 1004.5 |
| 20260505204831 | 21 | 340 | 0.0 | 0.0 | 0.00 | 0.30 | 0.30 | 73 | 1004.1 |
| 20260505204328 | 21 | 232 | 3.2 | 8.0 | 0.00 | 0.30 | 0.30 | 74 | 1003.9 |
| 20260505203826 | 21 | 14 | 0.0 | 1.6 | 0.00 | 0.30 | 0.30 | 73 | 1003.5 |
| 20260505203322 | 21 | 334 | 1.6 | 1.6 | 0.00 | 0.30 | 0.30 | 75 | 1003.4 |
| 20260505202818 | 21 | 349 | 1.6 | 1.6 | 0.00 | 0.30 | 0.30 | 77 | 1003.5 |
| 20260505202315 | 21 | 201 | 0.0 | 1.6 | 0.00 | 0.30 | 0.30 | 79 | 1003.5 |
| 20260505201811 | 21 | 342 | 1.6 | 1.6 | 0.00 | 0.30 | 0.30 | 81 | 1003.7 |
| 20260505201309 | 20 | 22 | 1.6 | 1.6 | 0.00 | 0.30 | 0.30 | 85 | 1003.6 |
| 20260505200807 | 19 | 351 | 1.6 | 1.6 | 0.00 | 0.30 | 0.30 | 90 | 1003.7 |
| 20260505200304 | 18 | 341 | 0.0 | 0.0 | 0.00 | 0.30 | 0.30 | 92 | 1003.7 |
| 20260505195759 | 18 | 344 | 0.0 | 0.0 | 0.00 | 0.30 | 0.30 | 94 | 1003.6 |
| 20260505195257 | 18 | 14 | 0.0 | 0.0 | 0.00 | 0.30 | 0.30 | 93 | 1003.4 |
| 20260505194754 | 17 | 31 | 1.6 | 1.6 | 0.30 | 0.30 | 0.30 | 89 | 1003.8 |
| 20260505194251 | 18 | 131 | 3.2 | 3.2 | 0.79 | 0.30 | 0.30 | 88 | 1004.4 |
| 20260505193746 | 20 | 225 | 4.8 | 8.0 | 0.48 | 0.25 | 0.25 | 79 | 1004.9 |
| 20260505193244 | 22 | 298 | 3.2 | 4.8 | 0.00 | 0.18 | 0.18 | 59 | 1004.4 |